Showing default

COSMOS 2502, 40358

Orbit data source: Space-Track

COSMOS 2502, 40358 is a payload satellite owned by VVKO (CIS) in LEO that was launched on Thu, 25 Dec 2014 UTC via a SOYUZ-2-1B launch vehicle from the Plesetsk Missile And Space Complex (PKMTR). Payload-class satellites include a variety of spacecraft equipped with specific instruments for various scientific and technological missions. These include communications satellites like Starlink; space stations such as the ISS; scientific satellites like the Hubble; Earth observation satellites from companies like Planet Labs, Umbra, and HawkEye 360; GPS; miniature CubeSats for education and research; and military/defense satellites.

Loading next visibility...
Identifier
40358, 2014-086A
Orbit
LEO
Country
Flag of CISCIS
Related business
Manufacturer
TSSKBP/ARSLO
Mission
Operational Defense SIGINT
Bus & Motor
YANTAR'-LOTOS, 11D428
Mass
6,575 kg wet, ~6,500 kg dry
Launch date (UTC)
2014-12-25 (11 years ago)
Launch vehicle
SOYUZ-2-1B
Launch site
Plesetsk Missile And Space Complex (PKMTR)
Object type
Payload
Rocket body
Debris
Shape & HBR
Cyl + 2 Pan, 3.1 m
Radar Cross Section
16.222 m², Large (>1 m²)

Expand to show TLE details & history
Last TLE update: 3 hours ago

TLE from 3 hours ago
0 COSMOS 2502
1 40358U 14086A   25291.01141337  .00000025  00000-0  71227-4 0  9998
2 40358  67.1525 236.8629 0004314 282.8832  77.1771 13.97779144550102
Epoch: 2025-10-18T00:16Z
TLE epoch observation values (Epoch: 2025-10-18T00:16:26.115Z)
Latitude
-0.00002°
Longitude
-153.99447°
Altitude
902.91 km
Speed
7.401 km/s
True Right ascension
15h 47m 27s
True Declination
0° 00' 00"
Sunlit
Object was in daylight at epoch
Visualization orbit readout
Latitude
Unknown
Longitude
Unknown
Altitude
Unknown
Speed
Unknown
Apparent Right ascension
Unknown
Apparent Declination
Unknown
Sunlit
N/A
Visualization observer readout
Local Sidereal Time
22:32:30
Azimuth
Unknown
Elevation
Unknown
Doppler factor
Unknown
Orbital elements
Apogee altitude
902.983 km
Perigee altitude
896.704 km
Semi-major axis
7,277.981 km
Eccentricity
0.00043
Inclination
67.1525°
RAAN
236.8629°
Arg. of periapsis
282.8832°
True anomaly
77.22531°
Mean anomaly
77.1771°
Eccentric anomaly
77.2012°
Mean motion
3.49564 °/min
Orbital period
102.99 mins
BSTAR
0.000071227
Loading maneuver chart data...
Computing Atmospheric mass density...
Loading historical data...
Loading historical data...
Loading historical data...
Loading historical data...
Loading historical data...
Loading historical data...
Loading historical data...
Other satellites on launch #86 in the year 2014 (2014-12-25 UTC)

Documentation

Showing up to 5 results
|